Regional Weather Roundup
Issued by NWS

Home | Current Version | Previous Version | Graphics & Text | Print | Product List | Glossary On
Versions: 1 2 3 4 5 6 7 8 9 10 11 12 13 14 15 16 17 18 19 20 21 22 23 24 25 26 27 28 29 30 31 32 33 34 35 36 37 38 39 40 41 42 43 44 45 46 47 48 49 50
000
ASUS43 KLMK 292210
RWRKY
KENTUCKY REGIONAL WEATHER ROUNDUP
NATIONAL WEATHER SERVICE LOUISVILLE KY
600 PM EDT WED JUL 29 2015

NOTE "FAIR" INDICATES FEW OR NO CLOUDS BELOW 12,000 FEET
WITH NO SIGNIFICANT WEATHER AND/OR OBSTRUCTIONS TO VISIBILITY.

KYZ001>023-026-027-061>063-070>075-292300-
WESTERN AND SOUTH CENTRAL KENTUCKY

CITY           SKY/WX    TMP DP  RH WIND       PRES   REMARKS
PADUCAH        MOSUNNY   94  77  57 W7        29.94F THUNDER HX 108
HENDERSON      PTSUNNY   84  73  70 NW5       29.94R THUNDER HX  91
OWENSBORO      MOSUNNY   94  80  63 W6        29.92F HX 113
HOPKINSVILLE   SUNNY     92  77  61 SW7       29.96F HX 104
BOWLING GREEN  MOSUNNY   94  76  55 W8        29.95F HX 106
GLASGOW        MOSUNNY  N/A N/A N/A W3        29.96F
$$

KYZ024-025-028>034-038-045-046-053-292300-
NORTH CENTRAL KENTUCKY

CITY           SKY/WX    TMP DP  RH WIND       PRES   REMARKS
LOUISVILLE/SDF PTSUNNY   94  75  54 W10       29.92S THUNDER HX 105
LOUISVILLE/LOU PTSUNNY   89  72  56 NW17G40   29.95R THUNDER HX  96
FORT KNOX      PTSUNNY   92  77  62 SW8       29.92F HX 106
$$

KYZ035>037-039>044-047>052-055>060-089>105-292300-
NORTHEAST KENTUCKY

CITY           SKY/WX    TMP DP  RH WIND       PRES   REMARKS
LEXINGTON      CLOUDY    79  74  84 S5        29.98S
COVINGTON      PTSUNNY   84  76  76 S5        29.95S HX  93
FRANKFORT      PTSUNNY   86  77  74 S9        29.94F HX  97
$$

KYZ054-064>069-076>088-106>120-292300-
SOUTHEAST KENTUCKY

CITY           SKY/WX    TMP DP  RH WIND       PRES   REMARKS
JACKSON        SUNNY     88  73  61 CALM      29.99S HX  95
LONDON         MOSUNNY   88  69  53 CALM      29.99F HX  92
SOMERSET       CLOUDY    88  72  58 CALM      29.98F HX  94
MIDDLESBORO    SUNNY     89  73  58 W3        29.98F HX  97
MONTICELLO     PTCLDY    90  80  72 CALM      30.00S HX 107
$$




USA.gov is the U.S. government's official web portal to all federal, state and local government web resources and services.